Voltar ao catálogo

COSMOS 1867 COOLANT

AtivoLEO
NORAD 39662·DEBRIS·🇷🇺 Russia

Lançado Jul 10, 1987 de Baikonur Cosmodrome

Loading…

Próximas Passagens (próximas 24 horas)

TLE

AtualizadoSource: Space-Track

Época: Sep 14, 2026, 07:40 UTC

1 39662U 87060Z   26257.32011912  .00000208  00000-0  10892-3 0  9991
2 39662  65.0068 114.6388 0017790 281.5316  78.3773 14.34693695648287

Acompanhe COSMOS 1867 COOLANT em tempo real com AllMySat

Download on the App Store